Regional Weather Roundup
Issued by NWS

Home | Current Version | Previous Version | Graphics & Text | Print | Product List | Glossary On
Versions: 1 2 3 4 5 6 7 8 9 10 11 12 13 14 15 16 17 18 19 20 21 22 23 24 25 26 27 28 29 30 31 32 33 34 35 36 37 38 39 40 41 42 43 44 45 46 47 48 49 50
000
ASUS43 KDMX 190206
RWRIA

WEATHER ROUNDUP FOR IOWA
NATIONAL WEATHER SERVICE DES MOINES IA
800 PM CST WED JAN 18 2017

NOTE: "FAIR" INDICATES FEW OR NO CLOUDS BELOW 12,000 FEET WITH NO
SIGNIFICANT WEATHER AND/OR OBSTRUCTIONS TO VISIBILITY.

* - THESE STATIONS ARE NOT NWS STATIONS...THUS NOT UNDER NWS
QUALITY CONTROL.  THEY ALSO DO NOT REPORT WEATHER SUCH
AS PRECIPITATION OR FOG.

IAZ001>003-012>014-020>022-031>034-043>046-190300-
   NORTHWEST IOWA

CITY           SKY/WX    TMP DP  RH WIND       PRES   REMARKS
CARROLL *      CLEAR     36  36 100 S7        29.90F WCI  30
CHEROKEE *     CLEAR     38  37  95 S8        29.86F WCI  32
DENISON *      CLEAR     39  37  93 S10       29.88R WCI  32
LE MARS *      CLEAR     39  36  87 S10       29.84F WCI  32
ORANGE CITY *  CLEAR     37  36  93 S9        29.83S WCI  31
SHELDON *      CLEAR     37  37 100 S12       29.81F WCI  30
SIOUX CITY     CLEAR     38  35  89 SE12      29.86S WCI  30
SPENCER        CLEAR     37  35  92 S12       29.85S WCI  29
STORM LAKE *   CLEAR     36  34  93 S13       29.87S WCI  27
$$

IAZ055>058-069>071-079>083-090>094-190300-
   SOUTHWEST IOWA

CITY           SKY/WX    TMP DP  RH WIND       PRES   REMARKS
ATLANTIC *     CLEAR     39  36  87 S10       29.92F WCI  32
AUDUBON *      CLEAR     37  36  93 S8        29.92F WCI  31
CLARINDA *     CLEAR     37  37 100 S6        29.97S WCI  33
COUNCIL BLFS * CLEAR     39  37  93 S13       29.89F WCI  32
CRESTON *      CLEAR     34  34 100 S8        29.96F WCI  27
HARLAN  *      CLEAR     37  37 100 S6        29.94F WCI  33
LAMONI         FOG       36  35  96 S8        29.98S VSB 1/4 WCI  30
RED OAK *      CLEAR     37  36  93 S8G14     29.93S WCI  31
SHENANDOAH *   CLEAR     37  36  93 SE13      29.93F WCI  29
$$

IAZ047>049-059>061-072>074-084-190300-
   CENTRAL IOWA

CITY           SKY/WX    TMP DP  RH WIND       PRES   REMARKS
AMES           CLEAR     35  34  96 S10       29.96S WCI  27
ANKENY *       CLEAR     34  32  93 S8        29.97F WCI  27
BOONE *        CLEAR     36  34  93 S7        29.93F WCI  30
CHARITON *     FOG       34  34 100 S9        29.98F VSB 1/4 WCI  26
DES MOINES     CLEAR     35  33  92 S13       29.97F WCI  26
GRINNELL*      CLEAR     35  33  92 S10       29.99F WCI  27
KNOXVILLE *    CLOUDY    34  34 100 S9G16     29.97S FOG     WCI  26
MARSHALLTOWN   CLEAR     36  34  92 SE10      29.97S WCI  28
NEWTON *       CLEAR     34  32  93 S8        29.97F WCI  27
PELLA *        PTCLDY    34  32  94 S7        30.01S WCI  28
PERRY *          N/A     35  35  99 S9        29.94S WCI  28
$$

IAZ004>006-015-016-023>025-035-036-190300-
   NORTH CENTRAL IOWA

CITY           SKY/WX    TMP DP  RH WIND       PRES   REMARKS
ALGONA *       CLEAR     37  36  93 S14       29.87F WCI  29
CLARION *      CLEAR     37  37 100 S15       29.91F WCI  28
ESTHERVILLE    CLEAR     35  35 100 S12       29.84F WCI  27
FORT DODGE *   CLEAR     37  34  87 S10       29.92S WCI  30
MASON CITY     CLEAR     32  31  96 S8        29.92F WCI  25
FOREST CITY *    N/A     32  32 100 S7        29.89F WCI  26
WEBSTER CITY * CLEAR     37  37 100 S12       29.91F WCI  30
IOWA FALLS *     N/A     36  34  92 S9        29.95S WCI  29
$$

IAZ007>011-017>019-026>030-037>042-050>054-066-190300-
   NORTHEAST IOWA

CITY           SKY/WX    TMP DP  RH WIND       PRES   REMARKS
CEDAR RAPIDS   CLEAR     34  32  92 S7        30.00F WCI  28
CHARLES CITY * CLOUDY    32  32 100 SE8       29.95S FOG     WCI  25
CLINTON *      CLOUDY    32  31  96 SE8       30.05F FOG     WCI  25
DECORAH *      FOG       34  34 100 S7        29.95F VSB 1/2 WCI  28
DUBUQUE        CLEAR     31  30  96 S8        30.00F FOG     WCI  23
MONTICELLO *   CLEAR     34  32  93 SE6       30.01F WCI  29
OELWEIN *      CLOUDY    32  32 100 SE12      29.97F FOG     WCI  23
WATERLOO       CLEAR     33  32  96 S9        29.97F FOG     WCI  25
$$

IAZ064-065-067-068-078-190300-
   EAST CENTRAL IOWA

CITY           SKY/WX    TMP DP  RH WIND       PRES   REMARKS
DAVENPORT      CLEAR     31  30  96 SE6       30.04F FOG     WCI  25
IOWA CITY      CLEAR     33  31  92 SE5       30.04F FOG     WCI  29
MUSCATINE *    CLEAR     32  30  93 CALM      30.04F FOG
QUAD CITIES    CLEAR     28  26  92 E5        30.04F FOG     WCI  23
$$

IAZ062-063-075>077-085>089-095>099-190300-
   SOUTHEAST IOWA

CITY           SKY/WX    TMP DP  RH WIND       PRES   REMARKS
BURLINGTON     CLEAR     34  33  96 CALM      30.04F FOG
FAIRFIELD *    CLOUDY    36  34  93 S8        30.02F FOG     WCI  29
FORT MADISON * CLEAR     34  34 100 S5        30.05S WCI  30
KEOKUK *       CLEAR     37  36  93 S3        30.04S
OSKALOOSA *      N/A     32  31  98 S8        30.00F FOG     WCI  25
OTTUMWA        PTCLDY    34  32  92 S8        30.00F WCI  27
WASHINGTON *   CLEAR     34  34 100 S7        30.04S FOG     WCI  28
$$

ABBREVIATIONS USED IN REMARKS
   TC - TEMPERATURES IN CELSIUS
  WCI - WIND CHILL INDEX
   HX - HEAT INDEX
  VSB - VISIBILITY
$$





USA.gov is the U.S. government's official web portal to all federal, state and local government web resources and services.